Miscellaneous Local Product
Issued by NWS North Platte, NE

Home | Current Version | Previous Version | Text Only | Print | Product List | Glossary On
Versions: 1 2 3 4 5 6 7 8 9 10 11 12 13 14 15 16 17 18 19 20 21 22 23 24 25 26 27 28 29 30 31 32 33 34 35 36 37 38 39 40 41 42 43 44 45 46 47 48 49 50
000
AXUS43 KLBF 262310
MISLBF


WESTERN AND NORTH CENTRAL NEBRASKA HOURLY WEATHER ROUNDUP
NATIONAL WEATHER SERVICE NORTH PLATTE NE
500 PM CST WED NOV 26 2014

***STATIONS NOT REPORTING VARIABLES SUCH AS SKY/WEATHER OR
PRESSURE ARE PROVIDED BY THE NEBRASKA DEPARTMENT OF
ROADS...RAWS...AND APRS NETWORKS...AND ARE NOT UNDER
NATIONAL WEATHER SERVICE QUALITY CONTROL***

...OBSERVATIONS IN AND NEAR THE EASTERN PANHANDLE OF NEBRASKA...

CITY           SKY/WX    TMP DP  RH WIND       PRES   REMARKS
PINE RIDGE     CLOUDY    31  22  69 CALM      30.26R
CHADRON        CLOUDY    52  25  35 SW6       30.26R
ALLIANCE       CLOUDY    30  27  88 W5        30.25R WCI  25
SIDNEY         LGT SNOW  29  25  85 CALM      30.26S FOG
WHITECLAY        N/A     29  20  69 CALM        N/A
CRESCENT LAKE    N/A     29  26  89 SW6         N/A  WCI  23
LISCO            N/A     30  27  86 CALM        N/A
BIG SPRINGS      N/A     30  28  92 W5          N/A  WCI  25
$$

...OBSERVATIONS IN NORTH CENTRAL NEBRASKA...

CITY           SKY/WX    TMP DP  RH WIND       PRES   REMARKS
VALENTINE      CLOUDY    28  18  66 CALM      30.30S
THEDFORD       CLOUDY    30  21  68 N7        30.29R WCI  23
AINSWORTH      CLOUDY    25  18  75 N6        30.31R WCI  18
O`NEILL        CLOUDY    23  15  71 N12       30.35R WCI  12
ORD            CLOUDY    27  16  63 N13       30.33R WCI  16
BROKEN BOW     CLOUDY    29  18  63 N12       30.30R WCI  19
BROWNLEE         N/A     28  19  68 NW6         N/A  WCI  21
SPRINGVIEW       N/A     24  16  72 NW3         N/A
BREWSTER         N/A     30  21  70 N6          N/A  WCI  24
SARGENT          N/A     27  19  70 CALM        N/A
COMSTOCK         N/A     33  21  62 SE8         N/A  WCI  25
CHAMBERS         N/A     23  12  61 W7          N/A  WCI  15
EWING            N/A     22  14  71 CALM        N/A
$$

...OBSERVATIONS IN SOUTHWEST NEBRASKA AND FAR NORTHEAST COLORADO...

CITY           SKY/WX    TMP DP  RH WIND       PRES   REMARKS
WRAY           CLOUDY    35  26  69 CALM      30.29R
HOLYOKE        FLURRIES  34  28  80 CALM      30.30R
IMPERIAL       CLOUDY    31  27  85 W5        30.31R FOG     WCI  26
OGALLALA       LGT SNOW  32  29  90 W5        30.29R WCI  27
NORTH PLATTE   CLOUDY    33  19  56 N5        30.30R WCI  29
MCCOOK         CLOUDY    36  19  50 NW9       30.31R WCI  29
LEXINGTON      CLOUDY    32  19  58 NW7       30.32S WCI  26
PAXTON           N/A     34  24  67 NW3         N/A
BRADY            N/A     31  20  63 CALM        N/A
GOTHENBURG       N/A     30  17  58 N3          N/A
CALLAWAY         N/A     28  20  72 N5          N/A  WCI  23
$$

...NORTH PLATTE AREA...

CITY           SKY/WX    TMP DP  RH WIND       PRES   REMARKS
AIRPORT        CLOUDY    33  19  56 N5        30.30R WCI  29
$$

...SOME WEATHER OBSERVATIONS FROM AROUND THE REGION...

CITY           SKY/WX    TMP DP  RH WIND       PRES   REMARKS
DENVER         PTCLDY    35  25  66 E16       30.18R WCI  25
LARAMIE        PTCLDY    43  27  53 W28G41    30.16R
CHEYENNE       CLOUDY    33  24  69 S12       30.14S WCI  24
SCOTTSBLUFF    LGT SNOW  29  27  92 S5        30.24S VSB 1   WCI  24
RAPID CITY     CLOUDY    31  24  75 CALM      30.26R
PIERRE         CLOUDY    18  10  71 E10       30.37R WCI   6
WINNER         FAIR      24  15  68 NE5       30.35R WCI  18
SIOUX FALLS    PTCLDY    14   7  73 N9        30.33S WCI   2
OMAHA          CLOUDY    28  21  75 N17G25    30.29R WCI  16
GRAND ISLAND   CLOUDY    29  18  63 N17       30.33R WCI  17
KANSAS CITY    CLOUDY    32  25  75 NW21G28   30.17R WCI  20
WICHITA        MOCLDY    41  22  46 N23G29    30.30R
HAYS           CLOUDY    39  18  41 N15       30.33R WCI  31
LIBERAL        CLEAR     45  18  33 NE10      30.32R
GOODLAND       CLOUDY    35  25  66 N5        30.30R WCI  31
$$



USA.gov is the U.S. government's official web portal to all federal, state and local government web resources and services.